User: anonymous   Login
Location: Alberta Star Party
(51.6612°N, 112.9089°W)
Time: 18:33:18
(UTC-06:00)
Language:

AO-Echo - Orbit

View from above orbital plane
View from above orbital plane
View from above satellite
View from above satellite

Ground track
Ground track

The orbit data is extracted from the following two-line orbital elements,

1 28375U 04025K   15242.08699179  .00000087  00000-0  38463-4 0  9992
2 28375 098.2960 180.4244 0083922 106.1202 254.9246 14.41689383587144
Epoch (UTC): 30 August 2015 02:05:16
Eccentricity: 0.0083922
inclination: 98.2960°
perigee height: 693 km
apogee height: 813 km
right ascension of ascending node: 180.4244°
argument of perigee: 106.1202°
revolutions per day: 14.41689383
mean anomaly at epoch: 254.9246°
orbit number at epoch: 58714

The dashed part of the orbit path shows where the satellite is in the earth's shadow,  

DLR